sat.trackr.live / text

‹ back to catalog

CAS500-1

NORAD 47932 · 2021-022A

PAYLOAD ACTIVE UNKNOWN

§ Identity

Operator
Country
SKOR
Launch date
2021-03-22
Launch site
TYMSC
Launch vehicle
Mass (kg)
RCS (m²)

Purposes: earth_obs

External: N2YO · Heavens-Above · Gunter

§ Orbital elements

Epoch: 2026-09-20T04:18:38.429280Z

Period
94.73 min
Inclination
97.3754°
Eccentricity
0.0004359
Mean motion
15.20167969 rev/d
Perigee alt
502.3 km
Apogee alt
508.3 km
Semi-major
6,883.5 km
B*
1.9131e-4
RAAN
156.4337°
Arg perigee
331.2136°
Mean anomaly
28.8858°
Rev number
30,519

§ Raw data

CAS500-11 47932U 21022A   26263.17961145  .00004074  00000+0  19131-3 0  99972 47932  97.3754 156.4337 0004359 331.2136  28.8858 15.20167969305194

JSON: /api/v1/satellites/47932 · /tle

For live sub-satellite position, see the globe view (requires WebGL).

§ Visibility from observer

Set your observer location to see the next 7 days of passes ≥ 10°. The values pass through the URL so the page stays shareable.

No JS? Fill the form by hand. The geolocation button needs JavaScript.

§ Radio — SatNOGS DB

ModeDescriptionDownlinkUplink
BPSK S-band telemetry 2.266 GHz

1 transmitter · refreshed weekly from db.satnogs.org